Location: Sternwarte_Laufen
(47.9344°N, 12.9346°E)
Time: 00:42:58
(UTC+02:00)

ISS - Pass Details

Date: 24 May 2017
Orbit: 402 x 408 km, 51.6° (Epoch: 27 May)

Event Time Altitude Azimuth Distance (km) Brightness Sun altitude
Rises 00:19:41 0° 260° (W) 2,329 0.1 -20.6°
Reaches altitude 10° 00:21:48 10° 265° (W) 1,469 -0.9 -20.6°
Maximum altitude 00:25:03 56° 345° (NNW) 491 -3.2 -20.7°
Drops below altitude 10° 00:28:18 10° 65° (ENE) 1,469 -0.8 -20.8°
Sets 00:30:24 0° 70° (ENE) 2,329 0.2 -20.9°
